Nebraska City, NE

7:40 AM CDT on April 19, 2018 (GMT -0500)
Nebraska City Municipal

Weather History for KAFK - February, 2014

Change the Weather History Date:

Thursday, February 13, 2014

  Actual Average (KSDA) Record (KSDA)
Temperature  
Mean Temperature 38 °F -  
Max Temperature 53 °F 39 °F 73 °F (1990)
Min Temperature 24 °F 19 °F -5 °F (1965)
Degree Days  
Heating Degree Days 26    
Moisture  
Dew Point 27 °F    
Average Humidity 68    
Maximum Humidity 88    
Minimum Humidity 39    
Precipitation  
Precipitation 0.00 in - - ()
Sea Level Pressure  
Sea Level Pressure 29.75 in    
Wind  
Wind Speed 12 mph (West)    
Max Wind Speed 18 mph    
Max Gust Speed 25 mph    
Visibility 9 miles    
Events      
Averages and records for this station are not official NWS values.
T = Trace of Precipitation, MM = Missing Value Source: NWS Daily Summary

Daily Weather History Graph

Daily Weather History Graph

Search for Another Location

Airport or City:

Astronomy

Feb. 13, 2014 Rise Set
Actual Time 7:19 AM CST 5:56 PM CST
Civil Twilight 6:51 AM CST 6:24 PM CST
Nautical Twilight 6:19 AM CST 6:56 PM CST
Astronomical Twilight 5:47 AM CST 7:28 PM CST
Moon 5:05 PM CST (2/13) 6:13 AM CST (2/13)
Length of Visible Light 11h 32m
Length of Day
10h 36m
Waxing Gibbous, 99% of the Moon is Illuminated
Feb 13
Waxing Gibbous
Feb 14
Full
Feb 22
Last Quarter
Mar 1
New
Mar 8
First Quarter

Hourly Weather History & Observations

Time (CST) Temp. Windchill Dew Point Humidity Pressure Visibility Wind Dir Wind Speed Gust Speed Precip Events Conditions
12:15 AM 24.4 °F 13.5 °F 21.2 °F 87% 29.86 in 5.0 mi South 11.5 mph - N/A   Overcast
12:35 AM 24.8 °F 12.9 °F 21.7 °F 88% 29.86 in 5.0 mi SSW 13.8 mph - N/A   Overcast
12:55 AM 25.2 °F 13.9 °F 21.9 °F 87% 29.85 in 5.0 mi SSW 12.7 mph - N/A   Overcast
1:15 AM 25.3 °F 11.8 °F 22.1 °F 87% 29.81 in 5.0 mi South 18.4 mph - N/A   Overcast
1:35 AM 25.9 °F 12.5 °F 22.8 °F 88% 29.81 in 5.0 mi SSW 18.4 mph - N/A   Mostly Cloudy
1:55 AM 26.6 °F 14.7 °F 23.0 °F 86% 29.82 in 7.0 mi SW 15.0 mph - N/A   Overcast
2:15 AM 27.0 °F 14.7 °F 23.5 °F 87% 29.81 in 7.0 mi SSW 16.1 mph - N/A   Overcast
2:35 AM 26.6 °F 14.7 °F 23.4 °F 88% 29.80 in 7.0 mi SSW 15.0 mph - N/A   Overcast
2:55 AM 26.6 °F 15.7 °F 23.5 °F 88% 29.80 in 7.0 mi SSW 12.7 mph - N/A   Overcast
3:15 AM 27.0 °F 16.1 °F 23.9 °F 88% 29.78 in 7.0 mi SSW 12.7 mph - N/A   Overcast
3:35 AM 27.3 °F 18.4 °F 24.1 °F 88% 29.78 in 7.0 mi SSW 9.2 mph - N/A   Mostly Cloudy
3:55 AM 27.5 °F 16.8 °F 24.4 °F 88% 29.77 in 7.0 mi SSW 12.7 mph - N/A   Mostly Cloudy
4:15 AM 28.0 °F 17.5 °F 24.8 °F 88% 29.75 in 7.0 mi SSW 12.7 mph - N/A   Overcast
4:35 AM 28.4 °F 17.5 °F 25.2 °F 88% 29.75 in 10.0 mi SSW 13.8 mph - N/A   Scattered Clouds
4:55 AM 28.4 °F 18.5 °F 24.8 °F 86% 29.77 in 10.0 mi SSW 11.5 mph - N/A   Clear
5:15 AM 28.4 °F 18.5 °F 24.8 °F 86% 29.76 in 10.0 mi SW 11.5 mph - N/A   Clear
5:35 AM 28.4 °F 17.5 °F 24.8 °F 86% 29.75 in 10.0 mi SW 13.8 mph - N/A   Clear
5:55 AM 29.1 °F 17.5 °F 24.4 °F 83% 29.75 in 10.0 mi SW 16.1 mph - N/A   Clear
6:15 AM 30.0 °F 17.9 °F 24.3 °F 79% 29.74 in 10.0 mi SW 18.4 mph - N/A   Clear
6:35 AM 30.0 °F 18.3 °F 24.3 °F 79% 29.73 in 10.0 mi SW 17.3 mph - N/A   Clear
6:55 AM 29.7 °F 18.2 °F 23.9 °F 79% 29.74 in 10.0 mi WSW 16.1 mph - N/A   Clear
7:15 AM 29.3 °F 17.3 °F 23.9 °F 80% 29.74 in 10.0 mi SW 17.3 mph - N/A   Clear
7:35 AM 29.1 °F 16.7 °F 23.9 °F 81% 29.73 in 10.0 mi WSW 18.4 mph - N/A   Clear
7:55 AM 29.8 °F 18.0 °F 24.4 °F 80% 29.74 in 10.0 mi WSW 17.3 mph - N/A   Clear
8:15 AM 30.4 °F 18.7 °F 24.8 °F 80% 29.74 in 10.0 mi WSW 17.3 mph - N/A   Clear
8:35 AM 30.7 °F 19.2 °F 24.8 °F 79% 29.75 in 10.0 mi WSW 17.3 mph - N/A   Clear
8:55 AM 31.6 °F 20.4 °F 25.3 °F 78% 29.75 in 10.0 mi WSW 17.3 mph - N/A   Clear
9:15 AM 32.0 °F 20.5 °F 26.1 °F 79% 29.74 in 10.0 mi WSW 18.4 mph 25.3 mph N/A   Clear
9:35 AM 33.3 °F 22.5 °F 26.6 °F 77% 29.75 in 10.0 mi West 17.3 mph 21.9 mph N/A   Clear
9:55 AM 34.7 °F 26.4 °F 27.3 °F 74% 29.77 in 10.0 mi West 11.5 mph 15.0 mph N/A   Clear
10:15 AM 36.1 °F 30.6 °F 27.9 °F 72% 29.78 in 10.0 mi West 6.9 mph - N/A   Clear
10:35 AM 37.6 °F 31.6 °F 28.8 °F 70% 29.78 in 10.0 mi West 8.1 mph - N/A   Clear
10:55 AM 39.2 °F 33.0 °F 29.7 °F 69% 29.78 in 10.0 mi West 9.2 mph - N/A   Clear
11:15 AM 41.2 °F 36.6 °F 30.6 °F 66% 29.78 in 10.0 mi West 6.9 mph - N/A   Clear
11:35 AM 43.5 °F 40.1 °F 30.9 °F 61% 29.77 in 10.0 mi WNW 5.8 mph - N/A   Clear
11:55 AM 45.7 °F 42.7 °F 31.8 °F 58% 29.76 in 10.0 mi WNW 5.8 mph - N/A   Clear
12:15 PM 47.3 °F - 32.0 °F 55% 29.75 in 10.0 mi NW 9.2 mph - N/A   Clear
12:35 PM 48.2 °F - 31.6 °F 53% 29.74 in 10.0 mi NW 9.2 mph - N/A   Clear
12:55 PM 49.1 °F - 31.8 °F 51% 29.73 in 10.0 mi WNW 9.2 mph - N/A   Clear
1:35 PM 50.4 °F - 31.6 °F 49% 29.72 in 10.0 mi WNW 12.7 mph 17.3 mph N/A   Clear
1:55 PM 51.1 °F - 30.9 °F 46% 29.72 in 10.0 mi WNW 11.5 mph - N/A   Clear
2:15 PM 51.8 °F - 31.5 °F 46% 29.71 in 10.0 mi WNW 11.5 mph - N/A   Clear
2:35 PM 52.0 °F - 30.7 °F 44% 29.72 in 10.0 mi WNW 13.8 mph - N/A   Clear
2:55 PM 52.9 °F - 30.4 °F 42% 29.72 in 10.0 mi WNW 12.7 mph 17.3 mph N/A   Clear
3:15 PM 53.2 °F - 30.6 °F 42% 29.72 in 10.0 mi WNW 11.5 mph - N/A   Clear
3:35 PM 53.4 °F - 30.0 °F 41% 29.72 in 10.0 mi WNW 10.4 mph - N/A   Clear
3:55 PM 53.1 °F - 30.0 °F 41% 29.72 in 10.0 mi WNW 11.5 mph 16.1 mph N/A   Clear
4:15 PM 52.9 °F - 28.6 °F 39% 29.72 in 10.0 mi NW 11.5 mph - N/A   Clear
4:35 PM 52.5 °F - 28.8 °F 40% 29.72 in 10.0 mi NW 9.2 mph - N/A   Clear
4:55 PM 51.4 °F - 29.3 °F 43% 29.73 in 10.0 mi NW 5.8 mph - N/A   Clear
5:15 PM 49.3 °F - 29.8 °F 47% 29.73 in 10.0 mi NW 4.6 mph - N/A   Clear
5:35 PM 48.6 °F - 29.5 °F 48% 29.73 in 10.0 mi NW 4.6 mph - N/A   Clear
5:55 PM 47.3 °F - 28.6 °F 48% 29.72 in 10.0 mi NW 3.5 mph - N/A   Clear
6:15 PM 47.3 °F - 27.9 °F 47% 29.72 in 10.0 mi Calm Calm - N/A   Clear
6:35 PM 46.4 °F - 27.7 °F 48% 29.73 in 10.0 mi Calm Calm - N/A   Clear
6:55 PM 44.6 °F - 27.9 °F 52% 29.73 in 10.0 mi Calm Calm - N/A   Clear
7:15 PM 46.8 °F - 28.0 °F 48% 29.73 in 10.0 mi Calm Calm - N/A   Clear
7:35 PM 41.9 °F 39.0 °F 28.0 °F 58% 29.73 in 10.0 mi NNE 4.6 mph - N/A   Scattered Clouds
7:55 PM 41.2 °F 38.2 °F 27.5 °F 58% 29.74 in 10.0 mi North 4.6 mph - N/A   Clear
8:15 PM 39.7 °F 36.5 °F 27.7 °F 62% 29.74 in 10.0 mi ENE 4.6 mph - N/A   Clear
8:35 PM 39.6 °F 34.0 °F 27.9 °F 63% 29.73 in 10.0 mi East 8.1 mph - N/A   Scattered Clouds
8:55 PM 39.0 °F 32.8 °F 27.0 °F 62% 29.74 in 10.0 mi ENE 9.2 mph - N/A   Clear
9:15 PM 37.0 °F 32.4 °F 26.6 °F 66% 29.74 in 10.0 mi East 5.8 mph - N/A   Clear
9:35 PM 36.1 °F 30.6 °F 25.7 °F 66% 29.73 in 10.0 mi ENE 6.9 mph - N/A   Clear
9:55 PM 34.9 °F 29.0 °F 25.7 °F 69% 29.72 in 10.0 mi ENE 6.9 mph - N/A   Scattered Clouds
10:15 PM 32.2 °F 25.8 °F 25.5 °F 76% 29.72 in 10.0 mi ENE 6.9 mph - N/A   Clear
10:35 PM 33.1 °F 25.5 °F 26.1 °F 75% 29.71 in 10.0 mi ENE 9.2 mph - N/A   Clear
10:55 PM 32.9 °F 25.3 °F 25.7 °F 75% 29.69 in 10.0 mi ENE 9.2 mph - N/A   Clear
11:15 PM 32.0 °F 26.4 °F 25.2 °F 76% 29.69 in 10.0 mi ENE 5.8 mph - N/A   Clear
11:35 PM 31.8 °F 23.9 °F 25.3 °F 77% 29.68 in 10.0 mi ENE 9.2 mph - N/A   Scattered Clouds
11:55 PM 32.0 °F 25.6 °F 25.2 °F 76% 29.69 in 10.0 mi ENE 6.9 mph - N/A   Mostly Cloudy